Farmington, MO

2:34 PM CST on January 21, 2018 (GMT -0600)
Farmington Regional

Weather History for KFAM - February, 2012

Change the Weather History Date:

Thursday, February 23, 2012

  Actual Average Record
Temperature  
Mean Temperature 56 °F -  
Max Temperature 73 °F 46 °F 73 °F (2012)
Min Temperature 39 °F 29 °F 6 °F (2015)
Degree Days  
Heating Degree Days 9    
Growing Degree Days 6 (Base 50)    
Moisture  
Dew Point 37 °F    
Average Humidity 52    
Maximum Humidity 76    
Minimum Humidity 25    
Precipitation  
Precipitation 0.05 in - - ()
Sea Level Pressure  
Sea Level Pressure 29.37 in    
Wind  
Wind Speed 6 mph (SSW)    
Max Wind Speed 30 mph    
Max Gust Speed 36 mph    
Visibility 10 miles    
Events      
Averages and records for this station are not official NWS values.
T = Trace of Precipitation, MM = Missing Value Source: NWS Daily Summary

Daily Weather History Graph

Daily Weather History Graph

Search for Another Location

Airport or City:

Trip Planner

Search our weather history database for the weather conditions in past years. The results will help you decide how hot, cold, wet, or windy it might be!

Date:

Astronomy

Feb. 23, 2012 Rise Set
Actual Time 6:42 AM CST 5:48 PM CST
Civil Twilight 6:15 AM CST 6:15 PM CST
Nautical Twilight 5:45 AM CST 6:45 PM CST
Astronomical Twilight 5:14 AM CST 7:16 PM CST
Moon 7:11 AM CST (2/23) 7:50 PM CST (2/23)
Length of Visible Light 11h 59m
Length of Day
11h 06m
Waxing Crescent, 3% of the Moon is Illuminated
Feb 23
Waxing Crescent
Feb 29
First Quarter
Mar 8
Full
Mar 14
Last Quarter
Mar 22
New

Hourly Weather History & Observations

Time (CST) Temp. Windchill Dew Point Humidity Pressure Visibility Wind Dir Wind Speed Gust Speed Precip Events Conditions
12:15 AM 42.8 °F 41.1 °F 28.4 °F 57% 29.50 in 10.0 mi SSE 3.5 mph - N/A   Scattered Clouds
12:35 AM 39.2 °F - 30.2 °F 70% 29.51 in 10.0 mi Calm Calm - N/A   Mostly Cloudy
12:55 AM 39.2 °F - 30.2 °F 70% 29.51 in 10.0 mi Calm Calm - N/A   Overcast
1:15 AM 42.8 °F 41.1 °F 30.2 °F 61% 29.52 in 10.0 mi South 3.5 mph - N/A   Overcast
1:35 AM 42.8 °F - 32.0 °F 66% 29.52 in 10.0 mi Calm Calm - N/A   Overcast
1:55 AM 44.6 °F - 32.0 °F 61% 29.53 in 10.0 mi Calm Calm - N/A   Overcast
2:15 AM 44.6 °F - 30.2 °F 57% 29.52 in 10.0 mi Calm Calm - N/A   Overcast
2:35 AM 44.6 °F 42.2 °F 30.2 °F 57% 29.49 in 10.0 mi SE 4.6 mph - N/A   Overcast
2:55 AM 42.8 °F - 33.8 °F 70% 29.48 in 10.0 mi Calm Calm - N/A   Scattered Clouds
3:15 AM 41.0 °F - 33.8 °F 76% 29.47 in 10.0 mi North - - N/A   Clear
3:35 AM 42.8 °F - 30.2 °F 61% 29.46 in 10.0 mi Calm Calm - N/A   Clear
3:55 AM 42.8 °F - 30.2 °F 61% 29.47 in 10.0 mi Calm Calm - N/A   Clear
4:15 AM 42.8 °F - 32.0 °F 66% 29.48 in 10.0 mi Calm Calm - N/A   Clear
4:35 AM 42.8 °F 41.1 °F 30.2 °F 61% 29.47 in 10.0 mi South 3.5 mph - N/A   Clear
4:55 AM 44.6 °F 42.2 °F 32.0 °F 61% 29.48 in 10.0 mi South 4.6 mph - N/A   Clear
5:15 AM 44.6 °F 41.4 °F 30.2 °F 57% 29.47 in 10.0 mi SSE 5.8 mph - N/A   Clear
5:35 AM 42.8 °F - 30.2 °F 61% 29.45 in 10.0 mi Calm Calm - N/A   Clear
5:55 AM 42.8 °F - 32.0 °F 66% 29.44 in 10.0 mi Calm Calm - N/A   Clear
6:15 AM 42.8 °F 40.1 °F 32.0 °F 66% 29.43 in 10.0 mi NE 4.6 mph - N/A   Clear
6:35 AM 42.8 °F 41.1 °F 30.2 °F 61% 29.42 in 10.0 mi ESE 3.5 mph - N/A   Clear
6:55 AM 44.6 °F 40.7 °F 30.2 °F 57% 29.40 in 10.0 mi East 6.9 mph - N/A   Clear
7:15 AM 44.6 °F 41.4 °F 32.0 °F 61% 29.42 in 10.0 mi ESE 5.8 mph - N/A   Clear
7:35 AM 46.4 °F 42.9 °F 35.6 °F 66% 29.41 in 10.0 mi East 6.9 mph - N/A   Clear
7:55 AM 48.2 °F - 37.4 °F 66% 29.41 in 10.0 mi ESE 8.1 mph - N/A   Clear
8:15 AM 50.0 °F - 42.8 °F 76% 29.40 in 10.0 mi SE 12.7 mph - N/A   Clear
8:55 AM 51.8 °F - 42.8 °F 71% 29.37 in 10.0 mi SE 12.7 mph - 0.05 in   Clear
9:15 AM 53.6 °F - 44.6 °F 72% 29.36 in 10.0 mi ESE 12.7 mph 18.4 mph N/A   Clear
9:35 AM 53.6 °F - 44.6 °F 72% 29.33 in 10.0 mi ESE 16.1 mph - N/A   Clear
9:55 AM 55.4 °F - 44.6 °F 67% 29.32 in 10.0 mi ESE 12.7 mph - N/A   Clear
10:15 AM 57.2 °F - 46.4 °F 67% 29.32 in 10.0 mi SE 9.2 mph - N/A   Clear
10:35 AM 57.2 °F - 44.6 °F 63% 29.33 in 10.0 mi SSE 5.8 mph - N/A   Mostly Cloudy
10:55 AM 57.2 °F - 44.6 °F 63% 29.32 in 10.0 mi SSE 11.5 mph - N/A   Overcast
11:15 AM 59.0 °F - 46.4 °F 63% 29.30 in 10.0 mi SSE 10.4 mph 16.1 mph N/A   Scattered Clouds
11:35 AM 62.6 °F - 46.4 °F 55% 29.28 in 10.0 mi South 10.4 mph - N/A   Partly Cloudy
11:55 AM 64.4 °F - 46.4 °F 52% 29.26 in 10.0 mi South 16.1 mph 19.6 mph N/A   Partly Cloudy
12:15 PM 64.4 °F - 46.4 °F 52% 29.26 in 10.0 mi SSW 15.0 mph 19.6 mph N/A   Partly Cloudy
12:35 PM 66.2 °F - 44.6 °F 46% 29.25 in 10.0 mi SSW 13.8 mph - N/A   Clear
12:55 PM 66.2 °F - 44.6 °F 46% 29.23 in 10.0 mi South 17.3 mph - N/A   Clear
1:15 PM 68.0 °F - 44.6 °F 43% 29.23 in 10.0 mi SW 10.4 mph - N/A   Clear
1:35 PM 69.8 °F - 44.6 °F 40% 29.24 in 10.0 mi SW 11.5 mph 16.1 mph N/A   Clear
1:55 PM 69.8 °F - 44.6 °F 40% 29.25 in 10.0 mi WSW 12.7 mph 17.3 mph N/A   Clear
2:15 PM 71.6 °F - 42.8 °F 35% 29.26 in 10.0 mi West 11.5 mph 16.1 mph N/A   Clear
2:35 PM 71.6 °F - 42.8 °F 35% 29.26 in 10.0 mi SW 12.7 mph 18.4 mph N/A   Clear
2:55 PM 71.6 °F - 42.8 °F 35% 29.26 in 10.0 mi WSW 13.8 mph 17.3 mph N/A   Clear
3:15 PM 73.4 °F - 39.2 °F 29% 29.25 in 10.0 mi WSW 13.8 mph 17.3 mph N/A   Clear
3:35 PM 73.4 °F - 39.2 °F 29% 29.26 in 10.0 mi SW 12.7 mph - N/A   Clear
3:55 PM 73.4 °F - 39.2 °F 29% 29.27 in 10.0 mi SW 12.7 mph - N/A   Clear
4:15 PM 73.4 °F - 37.4 °F 27% 29.28 in 10.0 mi WSW 8.1 mph 16.1 mph N/A   Clear
4:35 PM 73.4 °F - 35.6 °F 25% 29.28 in 10.0 mi West 12.7 mph 18.4 mph N/A   Clear
4:55 PM 71.6 °F - 35.6 °F 27% 29.29 in 10.0 mi WSW 10.4 mph 16.1 mph N/A   Clear
5:15 PM 71.6 °F - 35.6 °F 27% 29.30 in 10.0 mi WSW 8.1 mph - N/A   Clear
5:35 PM 69.8 °F - 33.8 °F 27% 29.31 in 10.0 mi WNW 16.1 mph - N/A   Clear
5:55 PM 66.2 °F - 33.8 °F 30% 29.32 in 10.0 mi NW 6.9 mph - N/A   Clear
6:15 PM 64.4 °F - 33.8 °F 32% 29.34 in 10.0 mi WNW 6.9 mph - N/A   Clear
6:35 PM 62.6 °F - 33.8 °F 34% 29.36 in 10.0 mi WNW 4.6 mph - N/A   Clear
6:55 PM 62.6 °F - 33.8 °F 34% 29.37 in 10.0 mi WNW 4.6 mph - N/A   Clear
7:15 PM 64.4 °F - 35.6 °F 34% 29.39 in 10.0 mi WNW 13.8 mph 18.4 mph N/A   Clear
7:35 PM 62.6 °F - 35.6 °F 37% 29.40 in 10.0 mi WNW 13.8 mph 20.7 mph N/A   Clear
7:55 PM 64.4 °F - 35.6 °F 34% 29.42 in 10.0 mi WNW 17.3 mph 20.7 mph N/A   Clear
8:15 PM 60.8 °F - 39.2 °F 45% 29.45 in 10.0 mi West 18.4 mph 29.9 mph N/A   Clear
8:35 PM 57.2 °F - 37.4 °F 48% 29.47 in 10.0 mi WNW 29.9 mph 35.7 mph N/A   Clear
8:55 PM 55.4 °F - 37.4 °F 51% 29.48 in 10.0 mi WNW 18.4 mph 28.8 mph N/A   Clear
9:15 PM 55.4 °F - 37.4 °F 51% 29.49 in 10.0 mi WNW 12.7 mph 23.0 mph N/A   Clear
9:35 PM 53.6 °F - 37.4 °F 54% 29.51 in 10.0 mi NW 9.2 mph - N/A   Clear
9:55 PM 53.6 °F - 39.2 °F 58% 29.52 in 10.0 mi NW 9.2 mph 19.6 mph N/A   Clear
10:15 PM 51.8 °F - 39.2 °F 62% 29.53 in 10.0 mi WNW 13.8 mph 21.9 mph N/A   Mostly Cloudy
10:35 PM 51.8 °F - 37.4 °F 58% 29.53 in 10.0 mi NW 17.3 mph 21.9 mph N/A   Mostly Cloudy
10:55 PM 51.8 °F - 37.4 °F 58% 29.54 in 10.0 mi WNW 11.5 mph 18.4 mph N/A   Clear
11:15 PM 51.8 °F - 37.4 °F 58% 29.54 in 10.0 mi WNW 12.7 mph 18.4 mph N/A   Clear
11:35 PM 50.0 °F - 35.6 °F 58% 29.54 in 10.0 mi West 16.1 mph 25.3 mph N/A   Clear
11:55 PM 48.2 °F - 33.8 °F 58% 29.57 in 10.0 mi WNW 12.7 mph 27.6 mph N/A   Partly Cloudy